Regional Weather Roundup
Issued by NWS

Home | Current Version | Previous Version | Text Only | Print | Product List | Glossary Off
Versions: 1 2 3 4 5 6 7 8 9 10 11 12 13 14 15 16 17 18 19 20 21 22 23 24 25 26 27 28 29 30 31 32 33 34 35 36 37 38 39 40 41 42 43 44 45 46 47 48 49 50

000
ASUS43 KBIS 140259
RWRND

NORTH DAKOTA REGIONAL WEATHER ROUNDUP
NATIONAL WEATHER SERVICE BISMARCK ND
1000 PM CDT SUN JUL 13 2014

NOTE: "FAIR" INDICATES FEW OR NO CLOUDS BELOW 12,000 FEET WITH NO
SIGNIFICANT WEATHER AND/OR OBSTRUCTIONS TO VISIBILITY.


NDZ001>003-009>011-017-140400-
NORTHWEST NORTH DAKOTA

CITY           SKY/WX    TMP DP  RH WIND       PRES   REMARKS
WILLISTON      CLEAR     64  44  48 N12       30.15R
MINOT          CLOUDY    61  46  57 NW12      30.08R
$$

NDZ018>021-031>035-040>046-140400-
SOUTHWEST NORTH DAKOTA

CITY           SKY/WX    TMP DP  RH WIND       PRES   REMARKS
BISMARCK       CLEAR     66  44  45 N13G20    30.07R
DICKINSON      CLEAR     60  41  49 N7        30.12R
GARRISON         N/A     59  48  67 N9        30.09R
HETTINGER ARPT CLEAR     59  47  64 N8        30.13R
$$

NDZ004>008-012>016-024-026-027-054-140400-
NORTHEAST NORTH DAKOTA

CITY           SKY/WX    TMP DP  RH WIND       PRES   REMARKS
GRAND FORKS    MOCLDY    61  47  59 NW8       29.94R
DEVILS LAKE    CLOUDY    61  45  55 NW18G28   29.99S
$$

NDZ022-023-025-028>030-036>039-047>053-140400-
SOUTHEAST NORTH DAKOTA

CITY           SKY/WX    TMP DP  RH WIND       PRES   REMARKS
FARGO          CLOUDY    65  46  50 NW13      29.95R
$$




USA.gov is the U.S. government's official web portal to all federal, state and local government web resources and services.